Torna al catalogo

YUNHAI 2-1B

AttivoScienzaLEO
NORAD 43910·PAYLOAD·🇨🇳 China

Lanciato Dec 29, 2018 da Jiuquan Satellite Launch Center

Loading…

Prossimi Passaggi (prossime 24 ore)

TLE

AggiornatoSource: Space-Track

Epoca: Sep 14, 2026, 21:56 UTC

1 43910U 18112B   26257.91404751  .00000133  00000-0  11558-3 0  9993
2 43910  50.0095  86.9781 0004975 176.4976 183.5975 14.29031897403078

Traccia YUNHAI 2-1B in tempo reale con AllMySat

Download on the App Store